Home > Weather > Canelones > Past weeks

Flag for Uruguay Weather for the Past 2 Weeks in Canelones, Uruguay

Now
46 °F

Clear.


Feels Like: 45 °F
Forecast: 45 / 61 °F
Wind: 3 mph from North

Location: Carrasco

Current Time: May 2, 2016 at 1:38:20 AM

Latest Report: May 2, 2016 at 12:00 AM


Visibility: 10 mi

Pressure: 30.09 "Hg

Humidity: 93%

Dew Point: 45 °F

Location of CanelonesLocation

Historic Weather in Canelones — Graph

°F

Canelones Temperature Yesterday

Maximum temperature yesterday: 63 °F (at 4:00 PM)
Minimum temperature yesterday: 41 °F (at 7:00 AM)
Average temperature yesterday: 51 °F

High & Low Weather Summary for the Past Weeks

 TemperatureHumidityPressure
High72 °F (Apr 21, 1:00 PM)100% (Apr 17, 8:00 AM)30.24 "Hg (Apr 17, 8:00 AM)
Low39 °F (Apr 17, 6:00 PM)45% (May 1, 2:00 PM)29.62 "Hg (Apr 19, 4:00 PM)
Average58 °F78%29.97 "Hg
* Reported Midnight between Apr 16 and Apr 17 — Midnight between May 1 and May 2, Canelones, Weather by CustomWeather, © 2016

Note: Actual official high and low records may vary slightly from our data, if they occured in-between our weather recording intervals... More about our weather records

Advertising

Canelones Weather History for the Previous 24 Hours

Scroll right to see more
 ConditionsComfort  
Time TempWeatherWind HumidityBarometerVisibility
12:00 AM
Mon, May 2
46 °FClear.3 mph93%30.09 "Hg10 mi
11:00 PM
Sun, May 1
48 °FClear.No wind87%30.07 "Hg10 mi
10:00 PM50 °FClear.5 mph82%30.07 "Hg10 mi
9:00 PM50 °FClear.5 mph82%30.09 "Hg10 mi
8:00 PM54 °FClear.No wind72%30.09 "Hg10 mi
7:00 PM54 °FClear.No wind72%30.09 "Hg10 mi
6:00 PM55 °FClear.3 mph72%30.07 "Hg10 mi
5:00 PM61 °FClear.6 mph52%30.07 "Hg10 mi
4:00 PM63 °FSunny.6 mph49%30.07 "Hg10 mi
3:00 PM61 °FSunny.8 mph55%30.09 "Hg10 mi
2:00 PM61 °FSunny.12 mph45%30.09 "Hg10 mi
1:00 PM59 °FSunny.12 mph55%30.12 "Hg10 mi
12:00 PM55 °FSunny.8 mph63%30.15 "Hg10 mi
11:00 AM55 °FSunny.9 mph67%30.15 "Hg10 mi
10:00 AM52 °FSunny.6 mph77%30.15 "Hg10 mi
9:00 AM46 °FSunny.5 mph93%30.18 "Hg10 mi
8:00 AM41 °FClear.No wind93%30.15 "Hg4 mi
7:00 AM41 °FSunny.5 mph87%30.15 "Hg10 mi
6:00 AM43 °FClear.No wind87%30.15 "Hg10 mi
5:00 AM43 °FClear.No wind87%30.15 "Hg10 mi
4:00 AM45 °FClear.No wind87%30.18 "Hg10 mi
3:00 AM45 °FOvercast.No wind87%30.21 "HgN/A
2:00 AM45 °FOvercast.No wind87%30.21 "HgN/A
1:00 AM46 °FOvercast.No wind82%30.21 "HgN/A
Weather by CustomWeather, © 2016

See weather overviewHow to use our weather pages